Regional Weather Roundup
Issued by NWS

Home | Current Version | Previous Version | Graphics & Text | Print | Product List | Glossary On
Versions: 1 2 3 4 5 6 7 8 9 10 11 12 13 14 15 16 17 18 19 20 21 22 23 24 25 26 27 28 29 30 31 32 33 34 35 36 37 38 39 40 41 42 43 44 45 46 47 48 49 50
000
ASUS45 KABQ 201901
RWRNM
WEATHER ROUNDUP FOR NEW MEXICO
NATIONAL WEATHER SERVICE ALBUQUERQUE NM
100 PM MDT SUN APR 20 2014

NOTE: "FAIR" MEANS FEW OR NO CLOUDS BELOW 12,000 FEET AGL WITH NO
       SIGNIFICANT WEATHER OR OBSTRUCTIONS TO VISION.

      THIS PRODUCT IS RELEASED AS TWO VERSIONS.  ONE VERSION NEAR
      THE TOP OF THE HOUR CONTAINING PRELIMINARY DATA FROM ALBUQUERQUE
      AND OTHER STATIONS.  A FINAL VERSION WITH ADDITIONAL DATA IS
      ISSUED ABOUT 10 MINUTES AFTER THE HOUR.

NMZ501-503-504-510>518-202000-
NORTHWEST PLATEAU/NORTHCENTRAL MOUNTAINS

CITY           SKY/WX    TMP DP  RH WIND       PRES   REMARKS
FARMINGTON     SUNNY     71  33  24 W22G32    30.08F
LOS ALAMOS     MOSUNNY   59  38  45 SE7       30.16F
SANTA FE       MOSUNNY   65  37  35 VRB6G18   30.11F
TAOS           PTSUNNY   57  36  44 N7G17     30.17F
ANGEL FIRE     CLOUDY    51  38  61 N8        30.19F

$$
NMZ402-403-502-505>509-202000-
WESTCENTRAL MOUNTAINS/SOUTHWEST MOUNTAINS

CITY           SKY/WX    TMP DP  RH WIND       PRES   REMARKS
GALLUP         LGT RAIN  64  32  30 N7G28     30.19F
SILVER CITY    SUNNY     66  32  28 SW10G16   30.19F

$$
NMZ407-409-411-412-202000-
SOUTHERN DESERTS

CITY           SKY/WX    TMP DP  RH WIND       PRES   REMARKS
DEMING         SUNNY     70  40  33 W10G16    30.14F
LAS CRUCES     SUNNY     72  35  25 S6        30.15F
HOLLOMAN AFB   MOSUNNY   68  43  40 NW3       30.13F
T OR C         SUNNY     69  39  33 S12       30.13F

$$
NMZ519>523-202000-
CENTRAL VALLEYS/CENTRAL HIGHLANDS

CITY           SKY/WX    TMP DP  RH WIND       PRES   REMARKS
ALBUQUERQUE    PTSUNNY   67  38  34 SW8       30.12F
DOUBLE EAGLE   PTSUNNY   64  36  34 W8        30.14F
CLINES CORNERS MOSUNNY   63  34  33 W24G31    30.13F
BELEN          FAIR      67  39  35 CALM      30.12F
SOCORRO        NOT AVBL

$$
NMZ524>526-539-540-202000-
SOUTHCENTRAL MOUNTAINS

CITY           SKY/WX    TMP DP  RH WIND       PRES   REMARKS
RUIDOSO        NOT AVBL

$$
NMZ527>531-202000-
NORTHEAST HIGHLANDS/NORTHEAST PLAINS

CITY           SKY/WX    TMP DP  RH WIND       PRES   REMARKS
LAS VEGAS      PTSUNNY   56  45  66 E12       30.11F
RATON          LGT RAIN  48  43  82 N14       30.12F
CLAYTON        PTSUNNY   68  38  33 W14       30.01F

$$
NMZ532>537-202000-
EASTCENTRAL PLAINS

CITY           SKY/WX    TMP DP  RH WIND       PRES   REMARKS
TUCUMCARI      PTSUNNY   69  46  43 MISG      29.99F
CANNON AFB     PTSUNNY   70  42  36 W20G25    30.03F
CLOVIS AIRPORT   N/A     70  45  40 SW22      30.06F

$$
NMZ028-029-538-202000-
SOUTHEAST PLAINS

CITY           SKY/WX    TMP DP  RH WIND       PRES   REMARKS
ROSWELL        SUNNY     75  41  29 NW3       30.03F
CARLSBAD       PTSUNNY   74  50  42 S5        30.04F
HOBBS          MOSUNNY   73  46  38 SW8G20    30.08F


$$



USA.gov is the U.S. government's official web portal to all federal, state and local government web resources and services.